Tracking 20040 objects as of 18-Nov-2019
Live streaming from Space Station
objects crossing your sky now

COSMOS 535

Track COSMOS 535 now!
10-day predictions
COSMOS 535 is classified as:


NORAD ID: 6270
Int'l Code: 1972-087H
Perigee: 1,391.2 km
Apogee: 1,474.7 km
Inclination: 74.0 °
Period: 114.3 minutes
Semi major axis: 7803 km
RCS: 0.7336 m2 (medium)
Launch date: November 1, 1972
Source: Commonwealth of Independent States (former USSR) (CIS)
Launch site: PLESETSK MISSILE AND SPACE COMPLEX (PKMTR)
aabbcc
Your satellite tracking list
Your tracking list is empty




NASA's NSSDC Master Catalog

Two Line Element Set (TLE):
1  6270U 72087H   19322.32614872  .00000007  00000-0  13478-3 0  9992
2  6270  74.0348 260.3771 0053496  98.3961  70.0478 12.59305898162917
Source of the keplerian elements: AFSPC